Location: Chester
(43.2628°N, 72.5951°W)
Time: 10:38:01
(UTC-05:00)

ISS - Visible Passes

Search period start: 24 January 2021 00:00
Search period end: 03 February 2021 00:00
Orbit: 418 x 421 km, 51.6° (Epoch: 24 January)

Date Brightness Start Highest point End Pass type
(mag) Time Alt. Az. Time Alt. Az. Time Alt. Az.
24 Jan -3.1 17:21:21 10° WSW 17:24:38 48° NNW 17:27:56 10° NE visible
24 Jan -1.5 18:59:24 10° WNW 19:01:19 19° NNW 19:01:19 19° NNW visible
25 Jan -2.0 18:11:42 10° WNW 18:14:28 23° NNW 18:15:53 18° NNE visible
26 Jan -2.2 17:23:58 10° WNW 17:26:55 27° NNW 17:29:52 10° NE visible
26 Jan -1.4 19:01:57 10° NW 19:03:25 17° NNW 19:03:25 17° NNW visible
27 Jan -1.9 18:14:21 10° NW 18:16:54 19° N 18:17:58 17° NNE visible
28 Jan -1.9 17:26:40 10° WNW 17:29:17 20° N 17:31:54 10° NE visible
28 Jan -1.5 19:04:05 10° NW 19:05:30 18° NNW 19:05:30 18° NNW visible
29 Jan -2.1 18:16:38 10° NW 18:19:18 21° N 18:20:05 19° NNE visible
30 Jan -1.9 17:29:07 10° NW 17:31:40 19° N 17:34:14 10° NE visible
30 Jan -1.8 19:05:57 10° NW 19:07:40 24° NNW 19:07:40 24° NNW visible
31 Jan -2.6 18:18:34 10° NW 18:21:35 29° NNE 18:22:20 26° NE visible
31 Jan -0.2 19:55:15 10° WNW 19:55:19 10° WNW 19:55:19 10° WNW visible
01 Feb -2.3 17:31:10 10° NW 17:33:59 24° NNE 17:36:48 10° ENE visible
01 Feb -2.6 19:07:47 10° WNW 19:10:04 40° NW 19:10:04 40° NW visible
02 Feb -3.6 18:20:21 10° NW 18:23:41 54° NNE 18:24:55 33° E visible
02 Feb -0.3 19:57:37 10° W 19:57:55 12° W 19:57:55 12° W visible
